CW7091 Weather Reports


time (UTC)temp
C
wind
direction
speed
KPH
gust
KPH
rain 1hr
cm
rain 24hr
cm
rain mn
cm
humidity
%
barometer
mb
20260503194332 26 329 1.6 1.6 0.00 0.00 0.00 52 1012.1
20260503193828 26 341 6.4 8.0 0.00 0.00 0.00 53 1012.1
20260503193324 25 32 4.8 4.8 0.00 0.00 0.00 53 1012.2
20260503192820 26 34 1.6 3.2 0.00 0.00 0.00 52 1012.0
20260503192316 25 336 4.8 4.8 0.00 0.00 0.00 53 1012.3
20260503191812 25 298 0.0 1.6 0.00 0.00 0.00 54 1012.4
20260503191309 25 333 3.2 3.2 0.00 0.00 0.00 54 1012.5
20260503190806 25 349 1.6 3.2 0.00 0.00 0.00 55 1012.6
20260503190303 25 301 0.0 1.6 0.00 0.00 0.00 59 1012.5
20260503185800 25 288 4.8 8.0 0.00 0.00 0.00 53 1012.6
20260503185256 25 283 0.0 0.0 0.00 0.00 0.00 56 1012.9
20260503184755 25 298 3.2 3.2 0.00 0.00 0.00 54 1012.8
20260503184252 25 302 3.2 3.2 0.00 0.00 0.00 58 1012.8
20260503183748 23 332 1.6 3.2 0.00 0.00 0.00 56 1012.8
20260503183246 24 326 1.6 1.6 0.00 0.00 0.00 59 1012.8
20260503182743 23 316 1.6 3.2 0.00 0.00 0.00 58 1013.0
20260503182242 23 283 1.6 3.2 0.00 0.00 0.00 58 1013.0
20260503181738 23 318 1.6 3.2 0.00 0.00 0.00 60 1013.2
20260503181236 24 291 3.2 4.8 0.00 0.00 0.00 57 1013.0
20260503180732 23 295 0.0 1.6 0.00 0.00 0.00 60 1013.1
20260503180230 22 278 1.6 1.6 0.00 0.00 0.00 60 1013.0
20260503175726 22 296 1.6 1.6 0.00 0.00 0.00 63 1013.2
20260503175225 22 302 3.2 3.2 0.00 0.00 0.00 61 1013.2
20260503174721 22 284 0.0 0.0 0.00 0.00 0.00 62 1013.3
20260503174219 22 299 3.2 4.8 0.00 0.00 0.00 65 1013.3
20260503173713 21 305 0.0 0.0 0.00 0.00 0.00 70 1013.3
20260503173209 21 292 6.4 9.7 0.00 0.00 0.00 68 1013.6
20260503172707 20 350 3.2 3.2 0.00 0.00 0.00 70 1013.5
20260503172204 20 296 1.6 1.6 0.00 0.00 0.00 70 1013.8
20260503171700 20 349 1.6 3.2 0.00 0.00 0.00 69 1013.7
20260503171158 20 298 3.2 3.2 0.00 0.00 0.00 73 1013.7
20260503170654 20 303 4.8 4.8 0.00 0.00 0.00 72 1013.7
20260503170151 20 348 0.0 1.6 0.00 0.00 0.00 75 1013.6
20260503160113 16 343 1.6 1.6 0.00 0.00 0.00 87 1014.0
20260503150542 11 333 0.0 0.0 0.00 0.00 0.00 99 1014.0
20260503130932 8 211 0.0 0.0 0.00 0.00 0.00 99 1014.2
20260503130430 8 211 0.0 0.0 0.00 0.00 0.00 99 1014.2
20260503110326 9 306 0.0 0.0 0.00 0.00 0.00 99 1014.4
20260503100252 10 306 0.0 0.0 0.00 0.00 0.00 99 1014.3
20260503090212 10 306 0.0 0.0 0.00 0.00 0.00 99 1014.5
20260503081138 11 306 0.0 0.0 0.00 0.00 0.00 99 1014.3
20260503080634 11 306 0.0 0.0 0.00 0.00 0.00 99 1014.4
20260503080132 11 306 0.0 0.0 0.00 0.00 0.00 99 1014.3
20260503072608 11 306 0.0 0.0 0.00 0.00 0.00 99 1014.3
20260503072106 11 306 0.0 0.0 0.00 0.00 0.00 99 1014.0
20260503071602 11 306 0.0 0.0 0.00 0.00 0.00 99 1014.5
20260503071059 11 306 0.0 0.0 0.00 0.00 0.00 99 1014.4
20260503070555 11 306 0.0 0.0 0.00 0.00 0.00 99 1014.3
20260503055009 13 306 0.0 0.0 0.00 0.00 0.00 99 1014.2
20260503054504 13 306 0.0 0.0 0.00 0.00 0.00 98 1014.0
20260503054003 13 306 0.0 0.0 0.00 0.00 0.00 98 1013.9
20260503053500 13 306 0.0 0.0 0.00 0.00 0.00 98 1014.2
20260503052957 13 306 0.0 0.0 0.00 0.00 0.00 97 1014.1
20260503052454 13 306 0.0 0.0 0.00 0.00 0.00 96 1013.9
20260503051950 13 306 0.0 0.0 0.00 0.00 0.00 96 1014.0
20260503051446 13 306 0.0 0.0 0.00 0.00 0.00 96 1013.9
20260503050944 14 306 0.0 0.0 0.00 0.00 0.00 96 1013.8
20260503050439 14 306 0.0 0.0 0.00 0.00 0.00 95 1014.0
20260503045937 14 306 0.0 0.0 0.00 0.00 0.00 95 1014.0
20260503045434 14 306 0.0 0.0 0.00 0.00 0.00 95 1013.9
20260503044931 14 306 0.0 0.0 0.00 0.00 0.00 93 1013.9
20260503044428 14 306 0.0 0.0 0.00 0.00 0.00 92 1013.9
20260503043926 15 306 0.0 0.0 0.00 0.00 0.00 91 1013.9
20260503043422 15 306 0.0 0.0 0.00 0.00 0.00 91 1013.6
20260503042918 15 306 0.0 0.0 0.00 0.00 0.00 90 1013.7
20260503042415 15 306 1.6 1.6 0.00 0.00 0.00 90 1013.5
20260503041911 15 306 0.0 0.0 0.00 0.00 0.00 88 1013.8
20260503041408 15 306 1.6 1.6 0.00 0.00 0.00 88 1013.5
20260503040906 16 306 0.0 1.6 0.00 0.00 0.00 87 1013.3
20260503040403 16 306 0.0 1.6 0.00 0.00 0.00 86 1013.4
20260503035900 16 306 0.0 0.0 0.00 0.00 0.00 84 1013.2
20260503035357 16 306 0.0 0.0 0.00 0.00 0.00 83 1013.4
20260503034854 17 306 0.0 0.0 0.00 0.00 0.00 82 1013.0
20260503034352 17 306 0.0 0.0 0.00 0.00 0.00 81 1013.2
20260503033849 17 306 0.0 0.0 0.00 0.00 0.00 79 1013.1
20260503033346 17 306 0.0 0.0 0.00 0.00 0.00 77 1012.8
20260503032844 18 306 1.6 1.6 0.00 0.00 0.00 76 1012.6
20260503032343 18 306 0.0 0.0 0.00 0.00 0.00 76 1012.4
20260503031840 18 306 0.0 0.0 0.00 0.00 0.00 72 1012.7
20260503031337 19 306 0.0 0.0 0.00 0.00 0.00 70 1012.6
20260503030834 20 306 0.0 0.0 0.00 0.00 0.00 69 1012.6
20260503030330 20 306 0.0 0.0 0.00 0.00 0.00 67 1012.5
20260503025827 20 303 1.6 3.2 0.00 0.00 0.00 64 1012.6
20260503025325 21 303 0.0 0.0 0.00 0.00 0.00 64 1012.4
20260503024821 21 286 3.2 3.2 0.00 0.00 0.00 63 1012.3
20260503024318 21 306 1.6 1.6 0.00 0.00 0.00 64 1012.5
20260503023815 21 303 0.0 0.0 0.00 0.00 0.00 63 1012.4
20260503023312 22 306 3.2 3.2 0.00 0.00 0.00 63 1012.3
20260503022809 22 291 4.8 4.8 0.00 0.00 0.00 61 1012.1
20260503022308 21 275 4.8 4.8 0.00 0.00 0.00 63 1012.3
20260503021805 22 311 3.2 3.2 0.00 0.00 0.00 63 1012.3
20260503021301 22 307 1.6 3.2 0.00 0.00 0.00 63 1012.2
20260503020759 22 309 1.6 1.6 0.00 0.00 0.00 64 1012.3
20260503020257 22 336 1.6 1.6 0.00 0.00 0.00 63 1012.2
20260503015752 22 287 1.6 3.2 0.00 0.00 0.00 62 1012.1
20260503015250 22 317 0.0 1.6 0.00 0.00 0.00 63 1012.3
20260503014745 22 302 1.6 3.2 0.00 0.00 0.00 63 1012.2
20260503014244 22 308 0.0 1.6 0.00 0.00 0.00 63 1012.3
20260503013740 23 329 1.6 1.6 0.00 0.00 0.00 63 1012.3
20260503013238 23 82 3.2 3.2 0.00 0.00 0.00 63 1012.2
20260503012735 23 280 0.0 1.6 0.00 0.00 0.00 62 1012.0
20260503012232 23 310 1.6 1.6 0.00 0.00 0.00 61 1012.2
20260503011729 25 299 1.6 1.6 0.00 0.00 0.00 60 1012.3
20260503011226 25 302 0.0 0.0 0.00 0.00 0.00 60 1012.1
20260503010722 24 324 0.0 0.0 0.00 0.00 0.00 61 1012.1
20260503010219 24 291 1.6 3.2 0.00 0.00 0.00 61 1012.1
20260503005717 25 299 3.2 3.2 0.00 0.00 0.00 62 1012.3
20260503005214 24 268 4.8 4.8 0.00 0.00 0.00 61 1012.3
20260503004710 24 310 4.8 8.0 0.00 0.00 0.00 61 1012.3
20260503004209 25 265 3.2 3.2 0.00 0.00 0.00 60 1012.3
20260503003705 25 316 3.2 3.2 0.00 0.00 0.00 60 1012.4
20260503003202 25 310 3.2 3.2 0.00 0.00 0.00 59 1012.1
20260503002659 25 300 3.2 9.7 0.00 0.00 0.00 59 1012.3
20260503002155 25 344 4.8 4.8 0.00 0.00 0.00 59 1012.4
20260503001651 25 310 0.0 1.6 0.00 0.00 0.00 58 1012.3
20260503001148 25 334 4.8 8.0 0.00 0.00 0.00 59 1012.3
20260503000646 25 335 1.6 3.2 0.00 0.00 0.00 60 1012.5
20260503000143 25 318 1.6 3.2 0.00 0.00 0.00 60 1012.4
20260502235640 25 297 1.6 3.2 0.00 0.00 0.00 60 1012.4
20260502235138 25 308 0.0 1.6 0.00 0.00 0.00 60 1012.6
20260502234633 25 335 3.2 4.8 0.00 0.00 0.00 60 1012.4
20260502234131 25 315 4.8 4.8 0.00 0.00 0.00 59 1012.7
20260502233627 25 299 3.2 3.2 0.00 0.00 0.00 61 1012.6
20260502233124 25 334 3.2 4.8 0.00 0.00 0.00 63 1013.0
20260502232620 26 310 3.2 3.2 0.00 0.00 0.00 60 1012.9
20260502232118 25 300 1.6 1.6 0.00 0.00 0.00 60 1012.9
20260502231614 25 304 4.8 8.0 0.00 0.00 0.00 61 1012.8
20260502231112 25 322 4.8 8.0 0.00 0.00 0.00 61 1013.1
20260502230610 25 301 3.2 3.2 0.00 0.00 0.00 63 1013.1
20260502230108 25 292 3.2 3.2 0.00 0.00 0.00 62 1013.1
20260502225603 25 261 0.0 0.0 0.00 0.00 0.00 62 1013.3
20260502225101 24 315 1.6 1.6 0.00 0.00 0.00 64 1013.5
20260502224557 25 332 4.8 4.8 0.00 0.00 0.00 63 1013.4
20260502224054 24 301 3.2 3.2 0.00 0.00 0.00 63 1013.5
20260502223552 24 345 6.4 9.7 0.00 0.00 0.00 63 1013.7
20260502223050 23 344 4.8 4.8 0.00 0.00 0.00 66 1013.6
20260502222547 25 305 1.6 3.2 0.00 0.00 0.00 64 1013.8
20260502222043 24 310 1.6 4.8 0.00 0.00 0.00 64 1013.8
20260502221539 24 319 4.8 4.8 0.00 0.00 0.00 66 1013.7
20260502221036 24 314 1.6 3.2 0.00 0.00 0.00 68 1014.1
20260502220532 25 333 3.2 4.8 0.00 0.00 0.00 64 1014.0
20260502220029 23 329 3.2 4.8 0.00 0.00 0.00 65 1013.8
20260502215526 23 309 1.6 3.2 0.00 0.00 0.00 66 1013.9
20260502215023 23 272 4.8 8.0 0.00 0.00 0.00 65 1014.1
20260502214520 23 295 1.6 1.6 0.00 0.00 0.00 64 1014.0
20260502214017 24 309 1.6 3.2 0.00 0.00 0.00 64 1014.0
20260502213514 23 306 0.0 0.0 0.00 0.00 0.00 65 1014.2
20260502213012 23 303 4.8 8.0 0.00 0.00 0.00 65 1014.4
20260502212510 23 299 1.6 1.6 0.00 0.00 0.00 65 1014.4
20260502212008 23 268 4.8 8.0 0.00 0.00 0.00 64 1014.3
20260502211503 23 320 0.0 0.0 0.00 0.00 0.00 66 1014.6
20260502211001 23 293 1.6 1.6 0.00 0.00 0.00 65 1014.3
20260502210457 23 323 3.2 3.2 0.00 0.00 0.00 65 1014.7
20260502205954 23 315 3.2 4.8 0.00 0.00 0.00 66 1014.7
20260502205450 23 348 0.0 1.6 0.00 0.00 0.00 66 1014.5
20260502204948 23 324 3.2 4.8 0.00 0.00 0.00 65 1014.6
20260502204445 22 320 3.2 3.2 0.00 0.00 0.00 68 1014.7
20260502203943 22 329 1.6 3.2 0.00 0.00 0.00 66 1014.8
20260502203440 22 276 0.0 1.6 0.00 0.00 0.00 65 1014.6
20260502202936 22 23 3.2 3.2 0.00 0.00 0.00 65 1014.8
20260502202432 22 312 1.6 1.6 0.00 0.00 0.00 66 1014.9
20260502201931 22 315 0.0 1.6 0.00 0.00 0.00 66 1014.9
20260502201426 22 290 0.0 0.0 0.00 0.00 0.00 65 1014.9
20260502200924 22 289 0.0 0.0 0.00 0.00 0.00 64 1015.0
20260502200419 21 277 1.6 1.6 0.00 0.00 0.00 68 1015.0
20260502195917 21 290 3.2 4.8 0.00 0.00 0.00 68 1015.2
20260502195414 21 31 3.2 4.8 0.00 0.00 0.00 71 1015.4
20260502194910 21 293 1.6 1.6 0.00 0.00 0.00 69 1015.4